TimeCST,TemperatureF,Dew PointF,Humidity,Sea Level PressureIn,VisibilityMPH,Wind Direction,Wind SpeedMPH,Gust SpeedMPH,PrecipitationIn,Events,Conditions,WindDirDegrees,DateUTC
12:15 AM,35.6,32.0,87,29.97,10.0,Calm,Calm,-,N/A,,Clear,0,2012-12-08 06:15:00
12:35 AM,33.8,32.0,93,29.99,10.0,North,9.2,-,N/A,,Clear,360,2012-12-08 06:35:00
12:55 AM,33.8,32.0,93,29.99,7.0,NNE,4.6,-,N/A,,Clear,20,2012-12-08 06:55:00
1:15 AM,33.8,32.0,93,29.99,10.0,Calm,Calm,-,N/A,,Clear,0,2012-12-08 07:15:00
1:35 AM,33.8,32.0,93,29.98,10.0,Calm,Calm,-,N/A,,Clear,0,2012-12-08 07:35:00
1:55 AM,33.8,32.0,93,29.99,10.0,North,3.5,-,N/A,,Clear,360,2012-12-08 07:55:00
2:15 AM,33.8,32.0,93,29.99,10.0,Calm,Calm,-,N/A,,Clear,0,2012-12-08 08:15:00
2:35 AM,32.0,32.0,100,29.99,10.0,North,5.8,-,N/A,,Clear,350,2012-12-08 08:35:00
2:55 AM,32.0,32.0,100,29.99,10.0,North,3.5,-,N/A,,Clear,350,2012-12-08 08:55:00
3:15 AM,32.0,30.2,93,29.99,10.0,Calm,Calm,-,N/A,,Clear,0,2012-12-08 09:15:00
3:35 AM,32.0,32.0,100,29.98,10.0,Calm,Calm,-,N/A,,Clear,0,2012-12-08 09:35:00
3:55 AM,32.0,30.2,93,29.98,10.0,Calm,Calm,-,N/A,,Clear,0,2012-12-08 09:55:00
4:15 AM,30.2,30.2,100,29.97,7.0,Calm,Calm,-,N/A,,Clear,0,2012-12-08 10:15:00
4:35 AM,32.0,30.2,93,29.96,7.0,Calm,Calm,-,N/A,,Clear,0,2012-12-08 10:35:00
4:55 AM,32.0,30.2,93,29.96,10.0,Calm,Calm,-,N/A,,Clear,0,2012-12-08 10:55:00
5:15 AM,32.0,30.2,93,29.95,10.0,Calm,Calm,-,N/A,,Clear,0,2012-12-08 11:15:00
5:35 AM,32.0,30.2,93,29.96,10.0,Calm,Calm,-,N/A,,Clear,0,2012-12-08 11:35:00
5:55 AM,30.2,28.4,93,29.96,5.0,WSW,5.8,-,N/A,,Clear,240,2012-12-08 11:55:00
6:15 AM,30.2,28.4,93,29.97,5.0,SW,5.8,-,N/A,,Clear,230,2012-12-08 12:15:00
6:35 AM,28.4,28.4,100,29.97,5.0,SW,4.6,-,N/A,,Clear,230,2012-12-08 12:35:00
7:15 AM,28.4,26.6,93,29.96,1.2,Calm,Calm,-,N/A,,Mist,0,2012-12-08 13:15:00
7:35 AM,30.2,28.4,93,29.97,5.0,Calm,Calm,-,N/A,,Clear,0,2012-12-08 13:35:00
7:55 AM,30.2,28.4,93,29.96,10.0,Calm,Calm,-,N/A,,Clear,0,2012-12-08 13:55:00
8:15 AM,30.2,28.4,93,29.96,7.0,WSW,3.5,-,N/A,,Clear,240,2012-12-08 14:15:00
8:35 AM,32.0,30.2,93,29.96,5.0,WSW,3.5,-,N/A,,Clear,250,2012-12-08 14:35:00
8:55 AM,32.0,30.2,93,29.96,7.0,Calm,Calm,-,N/A,,Clear,0,2012-12-08 14:55:00
9:15 AM,32.0,30.2,93,29.97,10.0,Calm,Calm,-,N/A,,Scattered Clouds,0,2012-12-08 15:15:00
9:35 AM,33.8,30.2,87,29.97,10.0,Calm,Calm,-,N/A,,Overcast,0,2012-12-08 15:35:00
9:55 AM,35.6,32.0,87,29.97,10.0,Calm,Calm,-,N/A,,Overcast,0,2012-12-08 15:55:00
10:15 AM,37.4,30.2,75,29.96,10.0,ENE,3.5,-,N/A,,Overcast,60,2012-12-08 16:15:00
10:35 AM,37.4,30.2,75,29.96,10.0,ENE,5.8,-,N/A,,Overcast,70,2012-12-08 16:35:00
10:55 AM,39.2,32.0,75,29.95,10.0,ESE,3.5,-,N/A,,Overcast,110,2012-12-08 16:55:00
11:15 AM,41.0,32.0,70,29.94,10.0,East,4.6,-,N/A,,Overcast,90,2012-12-08 17:15:00
11:35 AM,41.0,32.0,70,29.93,10.0,East,3.5,-,N/A,,Overcast,90,2012-12-08 17:35:00
11:55 AM,42.8,33.8,70,29.91,10.0,East,3.5,-,N/A,,Overcast,100,2012-12-08 17:55:00
12:15 PM,42.8,33.8,70,29.89,10.0,ESE,5.8,-,N/A,,Overcast,110,2012-12-08 18:15:00
12:35 PM,44.6,35.6,71,29.88,10.0,SSE,5.8,-,N/A,,Overcast,150,2012-12-08 18:35:00
12:55 PM,44.6,35.6,71,29.88,10.0,SSE,5.8,-,N/A,,Overcast,150,2012-12-08 18:55:00
1:15 PM,44.6,35.6,71,29.87,10.0,SSE,8.1,-,N/A,,Overcast,160,2012-12-08 19:15:00
1:35 PM,46.4,35.6,66,29.86,10.0,SSE,6.9,-,N/A,,Overcast,160,2012-12-08 19:35:00
1:55 PM,48.2,37.4,66,29.84,10.0,SSE,8.1,-,N/A,,Overcast,150,2012-12-08 19:55:00
2:15 PM,50.0,39.2,66,29.83,10.0,SSE,12.7,-,N/A,,Overcast,160,2012-12-08 20:15:00
2:55 PM,50.0,39.2,66,29.80,10.0,SSE,16.1,-,N/A,,Scattered Clouds,160,2012-12-08 20:55:00
3:15 PM,48.2,39.2,71,29.79,10.0,SSE,12.7,20.7,N/A,,Clear,160,2012-12-08 21:15:00
3:55 PM,46.4,39.2,76,29.78,10.0,SSE,11.5,-,N/A,,Clear,150,2012-12-08 21:55:00
4:15 PM,48.2,39.2,71,29.77,10.0,SE,12.7,-,N/A,,Clear,140,2012-12-08 22:15:00
4:35 PM,46.4,39.2,76,29.78,10.0,SE,12.7,-,N/A,,Clear,140,2012-12-08 22:35:00
4:55 PM,46.4,39.2,76,29.77,10.0,SE,12.7,-,N/A,,Clear,140,2012-12-08 22:55:00
5:15 PM,44.6,39.2,81,29.77,10.0,SE,9.2,-,N/A,,Clear,130,2012-12-08 23:15:00
5:35 PM,44.6,39.2,81,29.76,10.0,SE,12.7,-,N/A,,Clear,140,2012-12-08 23:35:00
5:55 PM,42.8,39.2,87,29.77,10.0,SE,10.4,-,N/A,,Clear,130,2012-12-08 23:55:00
6:15 PM,42.8,39.2,87,29.77,10.0,SE,10.4,-,N/A,,Clear,140,2012-12-09 00:15:00
6:35 PM,42.8,39.2,87,29.77,10.0,SE,9.2,-,N/A,,Scattered Clouds,140,2012-12-09 00:35:00
6:55 PM,42.8,39.2,87,29.76,7.0,SE,13.8,-,N/A,,Mostly Cloudy,140,2012-12-09 00:55:00
7:15 PM,42.8,39.2,87,29.78,7.0,SE,12.7,16.1,N/A,,Overcast,140,2012-12-09 01:15:00
7:35 PM,42.8,39.2,87,29.78,7.0,SSE,16.1,-,N/A,,Overcast,150,2012-12-09 01:35:00
7:55 PM,42.8,41.0,93,29.79,7.0,SE,11.5,-,N/A,,Overcast,140,2012-12-09 01:55:00
8:15 PM,42.8,41.0,93,29.79,7.0,SSE,9.2,-,N/A,,Overcast,150,2012-12-09 02:15:00
8:35 PM,42.8,41.0,93,29.79,7.0,SE,9.2,-,N/A,,Overcast,140,2012-12-09 02:35:00
8:55 PM,42.8,41.0,93,29.77,7.0,SE,11.5,-,N/A,,Overcast,140,2012-12-09 02:55:00
9:15 PM,44.6,41.0,87,29.77,7.0,SSE,12.7,-,N/A,,Overcast,150,2012-12-09 03:15:00
9:35 PM,44.6,41.0,87,29.77,7.0,SSE,9.2,-,N/A,,Overcast,150,2012-12-09 03:35:00
9:55 PM,44.6,41.0,87,29.78,7.0,SE,9.2,12.7,N/A,,Overcast,140,2012-12-09 03:55:00
10:35 PM,44.6,41.0,87,29.78,7.0,ESE,10.4,-,N/A,,Overcast,110,2012-12-09 04:35:00
10:55 PM,44.6,41.0,87,29.77,7.0,SE,8.1,-,N/A,,Overcast,130,2012-12-09 04:55:00
11:15 PM,44.6,41.0,87,29.78,7.0,SE,8.1,-,N/A,,Overcast,140,2012-12-09 05:15:00
11:35 PM,44.6,42.8,93,29.78,7.0,East,4.6,-,N/A,,Overcast,90,2012-12-09 05:35:00
11:55 PM,44.6,42.8,93,29.79,7.0,ENE,4.6,-,N/A,,Overcast,70,2012-12-09 05:55:00